SCP
0 0 0 0 0 0 0 0 0 0 0 0 0 0 0 0 0 0 0 0 0 0 0 0 0 0 0 0 0 0 0 0 0 0 0 0 0 0 0 0 0 0 0 0
0 0 0 0 0 0 0 0 0 0 0 0 0 0 0 0 0 0 0 0 0 0 0 0 0 0 0 0 0 0 0 0 0 0 0 0 0 0 0 0 0 0 0 0
0 0 0 0 0 0 0 0 0 0 0 0 0 0 0 0 0 0 0 0 0 0 0 0 0 0 0 0 0 0 0 0 0 0 0 0 0 0 0 0 0 0 0 0
0 0 0 0 0 0 0 0 0 0 0 0 0 0 0 0 0 0 0 0 0 0 0 0 0 0 0 0 0 0 0 0 0 0 0 0 0 0 0 0 0 0 0 0
0 0 0 0 0 0 0 0 0 0 0 0 0 0 0 0 0 0 0 0 0 0 0 0 0 0 0 0 0 0 0 0 0 0 0 0 0 0 0 0 0 0 0 0
0 0 0 0 0 0 0 0 0 0 0 0 0 0 0 0 0 0 0 0 0 0 0 0 0 0 0 0 0 0 0 0 0 0 0 0 0 0 0 0 0 0 0 0
0 0 0 0 0 0 0 0 0 0 0 0 0 0 0 0 0 0 0 0 0 0 0 0 0 0 0 0 0 0 0 0 0 0 0 0 0 0 0 0 0 0 0 0
0 0 0 0 0 0 0 0 0 0 0 0 0 0 0 0 0 0 0 0 0 0 0 0 0 0 0 0 0 0 0 0 0 0 0 0 0 0 0 0 0 0 0 0
0 0 0 0 0 0 0 0 0 0 0 0 0 0 0 0 0 0 0 0 0 0 0 0 0 0 0 0 0 0 0 0 0 0 0 0 0 0 0 0 0 0 0 0
0 0 0 0 0 0 0 0 0 0 0 0 0 0 0 0 0 0 0 0 0 0 0 0 0 0 0 0 0 0 0 0 0 0 0 0 0 0 0 0 0 0 0 0
0 0 0 0 0 0 0 0 0 0 0 0 0 0 0 0 0 0 0 0 0 0 0 0 0 0 0 0 0 0 0 0 0 0 0 0 0 0 0 0 0 0 0 0
0 0 0 0 0 0 0 0 0 0 0 0 0 0 0 0 0 0 0 0 0 0 0 0 0 0 0 0 0 0 -0 -0 -0 -0 -0 -0 0 0 0 0 0 0 0 0
0 0 0 0 0 0 0 0 0 0 0 0 0 0 0 0 0 0 0 0 0 0 0 0 0 0 0 0 0 0 0 -0 -0 -0 -0 -0 -0 0 0 0 0 0 0 0
0 0 0 0 0 0 0 0 0 0 0 0 0 0 0 0 0 0 0 0 0 0 0 0 0 0 0 0 0 0 0 -0 0 0 0 0 0 0 0 0 0 0 0 0
0 0 0 0 0 0 0 0 0 0 0 0 0 0 0 0 0 0 0 0 0 0 0 0 0 0 0 0 0 0 -0 0 0 0 0 0 0 0 0 0 0 0 0 0
0 0 0 0 0 0 0 0 0 0 0 0 0 0 0 0 0 0 0 0 0 0 0 0 0 0 0 0 0 -0 0 0 0 0 0 0 0 0 0 0 0 0 0 0
0 0 0 0 0 0 0 0 0 0 0 0 0 0 0 0 0 0 0 0 0 0 0 0 0 0 0 0 0 0 0 0 0 0 0 0 0 0 0 0 0 0 0 0
0 0 0 0 0 0 0 0 0 0 0 0 0 0 0 0 0 0 0 0 0 0 0 0 0 0 0 0 0 0 0 0 0 0 0 0 0 0 0 0 0 0 0 0
0 0 0 0 0 0 0 0 0 0 0 0 0 0 0 0 0 0 0 0 0 0 0 0 0 0 0 0 0 0 0 -0 0 0 0 0 0 0 0 0 0 0 0 0
0 0 0 0 0 0 0 0 0 0 0 0 0 0 0 0 0 0 0 0 0 0 0 0 0 0 0 0 0 -0 -0 -0 -0 0 0 0 0 0 0 0 0 0 0 0
0 0 0 0 0 0 0 0 0 0 0 0 0 0 0 0 0 0 0 0 0 0 0 0 0 0 0 0 0 0 0 -0 -0 -0 0 0 0 0 0 0 0 0 0 0
0 0 0 0 0 0 0 0 0 0 0 0 0 0 0 0 0 0 0 0 0 0 0 0 0 0 0 0 0 0 0 0 -0 -0 0 0 0 0 0 0 0 0 0 0
0 0 0 0 0 0 0 0 0 0 0 0 0 0 0 0 0 0 0 0 0 0 0 0 0 0 0 0 0 0 0 0 0 0 0 0 0 0 0 0 0 0 0 0
0 0 0 0 0 0 0 0 0 0 0 0 0 0 0 0 0 0 0 0 -0 0 0 0 0 0 0 0 0 0 0 0 0 0 0 0 0 0 0 0 0 0 0 0
0 0 0 0 0 0 0 0 0 0 0 0 0 0 0 0 0 0 0 0 -0 -0 -0 -0 -0 0 0 0 0 0 0 0 0 0 0 0 0 0 0 0 0 0 0 0
0 0 0 0 0 0 0 0 0 0 0 0 0 0 0 0 0 0 0 0 0 -0 -0 -0 -0 -0 -0 0 0 0 0 0 0 0 0 0 0 0 0 0 0 0 0 0
Wind_Speed_500mb
5 2 8 9 2 10 11 15 18 19 21 3 13 24 25 42 20 14 15 5 9 13 16 25 28 29 29 27 24 19 10 3 9 5 10 8 10 18 25 26 21 27 37 34
4 8 13 9 11 9 12 17 17 19 7 8 17 31 28 45 41 24 3 6 8 12 17 24 29 30 29 29 24 24 15 1 11 12 9 9 11 12 13 10 14 23 30 33
8 6 10 7 6 9 11 13 14 19 20 14 23 25 17 17 29 23 11 3 5 11 17 22 27 32 30 32 29 23 17 9 6 12 9 9 7 10 11 12 11 16 23 22
8 13 5 9 11 11 10 13 15 15 12 6 9 12 7 19 11 14 15 6 7 9 12 17 24 32 37 36 33 26 18 14 8 1 6 7 8 10 11 12 11 14 17 21
3 4 2 4 7 7 2 10 10 11 14 15 10 8 6 12 11 13 21 13 7 5 8 13 20 27 34 39 42 40 32 20 17 18 11 4 4 3 12 15 14 17 17 18
11 7 1 4 9 6 13 11 15 9 6 4 12 7 8 6 5 14 26 18 13 8 5 11 15 23 33 38 43 45 46 46 36 25 24 20 17 11 8 8 13 13 15 17
7 10 7 4 6 5 2 7 7 7 2 11 12 10 8 8 8 3 22 25 18 10 8 5 11 19 27 34 38 42 45 48 48 46 42 34 24 19 15 8 4 3 9 11
3 2 4 6 3 6 6 7 5 9 5 17 23 11 9 4 5 4 21 25 20 16 12 7 7 10 18 25 29 32 35 37 39 39 41 39 36 33 25 15 10 4 3 4
4 5 5 6 7 4 3 6 2 2 8 3 9 15 4 7 1 6 15 21 23 23 16 9 4 3 10 16 21 25 27 29 30 31 31 32 31 30 28 24 18 10 6 12
3 4 1 5 2 14 7 5 1 3 5 10 10 24 26 14 11 13 17 22 26 24 19 11 5 5 11 12 14 18 22 25 26 25 26 26 26 27 26 24 22 19 12 3
3 5 3 3 11 7 4 3 6 6 4 6 11 15 12 8 6 17 24 27 29 27 18 15 9 12 17 16 19 17 15 18 21 24 23 22 20 20 21 21 21 18 17 14
4 4 7 11 7 11 6 5 4 6 21 13 17 42 13 7 8 20 19 27 27 28 26 19 12 16 16 16 16 21 30 32 29 26 23 22 21 22 21 20 19 19 19 17
7 4 5 11 4 5 5 7 11 5 4 36 21 25 10 9 9 12 16 18 24 31 30 23 18 17 16 18 22 26 28 32 33 30 27 25 25 25 25 23 22 21 20 20
7 1 11 10 13 8 6 10 12 8 8 24 31 42 37 21 12 19 21 20 27 41 39 29 17 13 20 22 22 24 25 29 33 34 32 30 30 29 29 28 26 25 23 22
6 7 7 11 16 12 21 23 26 29 31 13 44 43 42 34 24 51 57 47 36 32 33 22 15 20 23 26 29 31 31 32 34 35 35 34 33 32 32 32 30 27 26 25
2 4 7 7 16 14 17 19 35 34 35 30 40 44 43 55 44 47 41 38 29 22 18 16 17 22 26 31 34 36 38 36 35 37 40 40 38 34 32 32 30 27 24 23
9 5 4 9 9 10 11 19 10 9 10 13 23 31 39 22 26 32 31 25 26 26 21 15 19 23 28 32 36 37 38 41 42 39 39 42 44 42 36 33 30 27 25 24
9 7 4 6 8 7 9 7 14 22 15 15 15 20 29 36 35 36 34 33 21 8 9 15 21 26 31 34 37 39 41 43 44 44 42 41 44 45 44 38 32 31 29 26
6 6 1 5 7 18 23 4 4 1 15 13 18 26 38 47 27 14 24 34 14 5 16 20 25 29 32 38 40 41 42 42 42 43 41 41 41 43 43 45 37 31 30 31
5 8 6 4 5 12 5 4 10 6 15 30 35 34 39 45 15 11 46 29 17 30 32 31 31 32 35 38 39 40 43 46 46 44 44 42 44 44 42 45 43 36 32 30
5 3 11 10 8 15 11 15 3 1 11 31 30 33 35 11 10 36 42 35 35 41 42 38 33 36 37 38 39 40 44 49 52 52 52 49 48 48 45 41 47 44 40 37
13 12 8 5 5 16 19 10 4 6 15 22 29 32 37 40 52 57 63 62 52 40 38 42 45 41 37 39 45 49 50 53 55 60 60 58 56 53 49 44 49 50 48 46
3 12 8 15 11 5 13 11 4 11 17 20 26 31 38 46 45 51 52 51 46 41 43 47 54 57 56 56 54 58 59 61 60 58 60 64 63 61 56 51 49 55 54 53
6 11 5 7 8 12 7 10 9 17 21 23 22 33 38 44 48 51 48 48 47 50 47 53 61 64 64 63 62 62 64 63 63 62 61 60 65 67 63 59 55 55 61 62
5 18 9 9 14 14 20 15 14 28 22 24 39 45 42 47 51 50 51 49 55 57 65 69 72 74 73 70 70 69 70 70 69 68 66 64 62 64 66 64 64 61 61 61
21 10 8 7 10 10 13 21 38 25 30 43 47 59 55 49 54 57 62 64 64 71 76 79 77 74 73 73 74 73 72 73 74 76 74 70 66 65 65 65 67 65 65 62
Wind_Direction_500mb
95 281 218 336 330 355 348 307 289 293 302 315 261 278 286 287 239 203 243 284 348 6 357 351 355 351 348 346 348 342 331 169 227 244 257 239 208 227 248 249 246 228 233 234
188 225 40 27 33 350 308 289 284 285 27 12 297 276 285 280 275 196 155 7 23 355 8 7 9 7 8 6 10 18 20 17 208 194 218 238 233 238 243 238 231 228 232 238
254 17 64 27 335 289 280 267 282 280 320 301 283 278 272 317 233 113 103 59 38 23 20 18 24 23 27 27 27 22 30 26 260 256 259 236 230 241 240 233 234 229 227 227
278 66 16 305 284 280 300 3 348 329 324 267 23 287 273 298 112 129 145 178 102 47 24 29 37 39 44 46 45 41 33 41 52 288 232 212 212 212 237 226 220 218 219 212
90 123 162 279 273 26 353 351 338 318 301 312 262 260 266 332 181 176 158 147 102 47 50 45 51 50 52 56 56 55 56 56 54 62 78 111 185 192 213 222 195 195 197 205
267 123 239 279 34 1 335 299 279 246 262 312 251 238 282 65 20 359 133 155 164 157 88 60 56 61 62 59 58 56 55 58 59 54 57 66 77 89 117 156 177 184 194 189
170 202 130 359 297 137 74 333 327 340 349 228 46 332 271 39 9 35 159 168 170 173 161 112 71 63 60 57 54 54 53 52 55 55 57 58 57 60 59 62 91 159 190 188
285 328 156 124 290 3 240 178 172 271 326 300 320 250 263 85 353 293 154 164 171 191 192 169 103 63 52 50 48 46 46 47 44 46 50 52 54 56 61 50 36 19 316 295
350 145 112 41 17 8 21 217 346 320 229 318 240 268 171 79 353 97 140 173 190 197 191 186 144 55 38 34 33 34 34 36 37 37 37 37 40 45 49 52 56 49 338 309
104 297 87 119 247 253 217 4 92 297 292 260 276 299 287 279 220 214 221 213 215 204 200 192 198 339 350 360 11 17 19 19 22 25 26 29 29 26 24 29 32 30 35 14
48 100 152 137 201 222 165 228 217 257 252 234 294 268 2 45 338 212 224 220 224 203 211 210 248 311 336 343 345 357 6 4 0 359 3 7 13 14 10 5 6 7 7 3
69 150 250 232 89 67 40 312 292 177 268 250 269 273 72 60 300 329 240 228 231 216 208 223 263 297 326 337 341 345 342 339 337 340 344 347 351 352 353 352 352 347 344 342
188 214 336 326 50 46 169 209 221 256 90 268 265 273 324 286 313 304 300 257 229 221 213 229 254 287 312 327 331 330 324 320 318 317 323 329 337 343 346 347 345 344 343 340
81 165 186 218 256 348 272 284 285 210 226 264 259 279 291 308 310 288 287 277 251 238 232 224 263 277 306 319 319 313 311 306 302 299 303 310 319 328 334 339 340 340 338 336
119 198 208 254 289 308 287 283 277 259 263 243 273 277 282 283 298 294 286 273 269 261 226 214 246 296 312 317 319 318 315 303 290 283 279 284 296 307 320 329 333 336 338 338
72 275 41 299 248 276 302 289 265 269 270 267 269 274 277 296 306 311 321 292 266 264 266 275 288 299 305 311 309 306 304 306 304 289 278 274 273 285 299 314 322 327 336 343
134 136 67 278 3 320 319 245 262 263 236 207 271 277 292 295 293 296 302 298 288 294 290 292 307 312 316 314 313 313 308 304 304 302 288 280 276 272 276 291 304 310 315 323
136 111 112 267 26 312 224 301 229 239 258 281 288 291 295 298 293 286 284 290 289 301 335 328 321 318 318 315 313 314 311 308 308 306 300 289 279 273 268 270 283 295 305 312
71 126 254 171 204 284 297 315 8 22 282 342 312 326 335 346 341 314 307 277 263 327 341 324 312 306 303 301 302 306 308 312 308 309 304 297 290 277 269 262 268 280 295 298
57 72 134 114 208 238 255 84 170 297 268 6 5 12 11 6 3 346 3 353 323 319 322 308 297 291 290 289 289 295 302 305 309 311 308 302 295 292 281 257 255 266 281 288
119 183 199 214 247 276 344 17 5 208 293 350 358 356 359 358 322 318 319 336 342 332 325 316 304 294 290 288 292 300 303 303 304 305 305 304 301 297 293 264 250 256 264 275
164 156 191 153 191 269 19 0 153 303 325 347 349 349 340 326 317 316 310 309 305 308 318 312 305 301 297 300 302 302 301 298 296 295 295 294 294 297 296 287 257 254 259 265
251 187 184 178 208 94 89 151 176 318 330 339 330 325 324 318 318 314 316 315 311 304 295 296 298 298 302 306 307 302 299 298 295 292 287 286 284 285 288 288 278 263 258 260
276 169 185 60 298 58 78 94 355 343 329 317 321 310 312 312 312 308 306 305 305 307 308 294 296 299 302 303 303 302 301 298 295 292 289 285 281 280 279 278 277 273 265 260
169 141 196 256 276 342 161 23 325 322 313 309 306 314 312 306 306 305 304 300 299 298 294 297 298 299 299 300 299 299 299 299 296 292 288 285 283 280 278 274 271 270 267 266
185 190 181 221 145 199 270 295 315 306 309 313 314 309 313 314 308 305 299 298 299 298 298 297 298 299 299 299 297 296 295 294 293 290 288 285 280 277 275 274 270 263 263 263
Wind_Speed_850mb
5 2 8 9 2 10 11 15 18 19 21 3 13 24 25 42 20 14 15 5 9 13 16 25 28 29 29 27 24 19 10 3 9 5 10 8 10 18 25 26 21 27 37 34
4 8 13 9 11 9 12 17 17 19 7 8 17 31 28 45 41 24 3 6 8 12 17 24 29 30 29 29 24 24 15 1 11 12 9 9 11 12 13 10 14 23 30 33
8 6 10 7 6 9 11 13 14 19 20 14 23 25 17 17 29 23 11 3 5 11 17 22 27 32 30 32 29 23 17 9 6 12 9 9 7 10 11 12 11 16 23 22
8 13 5 9 11 11 10 13 15 15 12 6 9 12 7 19 11 14 15 6 7 9 12 17 24 32 37 36 33 26 18 14 8 1 6 7 8 10 11 12 11 14 17 21
3 4 2 4 7 7 2 10 10 11 14 15 10 8 6 12 11 13 21 13 7 5 8 13 20 27 34 39 42 40 32 20 17 18 11 4 4 3 12 15 14 17 17 18
11 7 1 4 9 6 13 11 15 9 6 4 12 7 8 6 5 14 26 18 13 8 5 11 15 23 33 38 43 45 46 46 36 25 24 20 17 11 8 8 13 13 15 17
7 10 7 4 6 5 2 7 7 7 2 11 12 10 8 8 8 3 22 25 18 10 8 5 11 19 27 34 38 42 45 48 48 46 42 34 24 19 15 8 4 3 9 11
3 2 4 6 3 6 6 7 5 9 5 17 23 11 9 4 5 4 21 25 20 16 12 7 7 10 18 25 29 32 35 37 39 39 41 39 36 33 25 15 10 4 3 4
4 5 5 6 7 4 3 6 2 2 8 3 9 15 4 7 1 6 15 21 23 23 16 9 4 3 10 16 21 25 27 29 30 31 31 32 31 30 28 24 18 10 6 12
3 4 1 5 2 14 7 5 1 3 5 10 10 24 26 14 11 13 17 22 26 24 19 11 5 5 11 12 14 18 22 25 26 25 26 26 26 27 26 24 22 19 12 3
3 5 3 3 11 7 4 3 6 6 4 6 11 15 12 8 6 17 24 27 29 27 18 15 9 12 17 16 19 17 15 18 21 24 23 22 20 20 21 21 21 18 17 14
4 4 7 11 7 11 6 5 4 6 21 13 17 42 13 7 8 20 19 27 27 28 26 19 12 16 16 16 16 21 30 32 29 26 23 22 21 22 21 20 19 19 19 17
7 4 5 11 4 5 5 7 11 5 4 36 21 25 10 9 9 12 16 18 24 31 30 23 18 17 16 18 22 26 28 32 33 30 27 25 25 25 25 23 22 21 20 20
7 1 11 10 13 8 6 10 12 8 8 24 31 42 37 21 12 19 21 20 27 41 39 29 17 13 20 22 22 24 25 29 33 34 32 30 30 29 29 28 26 25 23 22
6 7 7 11 16 12 21 23 26 29 31 13 44 43 42 34 24 51 57 47 36 32 33 22 15 20 23 26 29 31 31 32 34 35 35 34 33 32 32 32 30 27 26 25
2 4 7 7 16 14 17 19 35 34 35 30 40 44 43 55 44 47 41 38 29 22 18 16 17 22 26 31 34 36 38 36 35 37 40 40 38 34 32 32 30 27 24 23
9 5 4 9 9 10 11 19 10 9 10 13 23 31 39 22 26 32 31 25 26 26 21 15 19 23 28 32 36 37 38 41 42 39 39 42 44 42 36 33 30 27 25 24
9 7 4 6 8 7 9 7 14 22 15 15 15 20 29 36 35 36 34 33 21 8 9 15 21 26 31 34 37 39 41 43 44 44 42 41 44 45 44 38 32 31 29 26
6 6 1 5 7 18 23 4 4 1 15 13 18 26 38 47 27 14 24 34 14 5 16 20 25 29 32 38 40 41 42 42 42 43 41 41 41 43 43 45 37 31 30 31
5 8 6 4 5 12 5 4 10 6 15 30 35 34 39 45 15 11 46 29 17 30 32 31 31 32 35 38 39 40 43 46 46 44 44 42 44 44 42 45 43 36 32 30
5 3 11 10 8 15 11 15 3 1 11 31 30 33 35 11 10 36 42 35 35 41 42 38 33 36 37 38 39 40 44 49 52 52 52 49 48 48 45 41 47 44 40 37
13 12 8 5 5 16 19 10 4 6 15 22 29 32 37 40 52 57 63 62 52 40 38 42 45 41 37 39 45 49 50 53 55 60 60 58 56 53 49 44 49 50 48 46
3 12 8 15 11 5 13 11 4 11 17 20 26 31 38 46 45 51 52 51 46 41 43 47 54 57 56 56 54 58 59 61 60 58 60 64 63 61 56 51 49 55 54 53
6 11 5 7 8 12 7 10 9 17 21 23 22 33 38 44 48 51 48 48 47 50 47 53 61 64 64 63 62 62 64 63 63 62 61 60 65 67 63 59 55 55 61 62
5 18 9 9 14 14 20 15 14 28 22 24 39 45 42 47 51 50 51 49 55 57 65 69 72 74 73 70 70 69 70 70 69 68 66 64 62 64 66 64 64 61 61 61
21 10 8 7 10 10 13 21 38 25 30 43 47 59 55 49 54 57 62 64 64 71 76 79 77 74 73 73 74 73 72 73 74 76 74 70 66 65 65 65 67 65 65 62
Wind_Direction_850mb
95 281 218 336 330 355 348 307 289 293 302 315 261 278 286 287 239 203 243 284 348 6 357 351 355 351 348 346 348 342 331 169 227 244 257 239 208 227 248 249 246 228 233 234
188 225 40 27 33 350 308 289 284 285 27 12 297 276 285 280 275 196 155 7 23 355 8 7 9 7 8 6 10 18 20 17 208 194 218 238 233 238 243 238 231 228 232 238
254 17 64 27 335 289 280 267 282 280 320 301 283 278 272 317 233 113 103 59 38 23 20 18 24 23 27 27 27 22 30 26 260 256 259 236 230 241 240 233 234 229 227 227
278 66 16 305 284 280 300 3 348 329 324 267 23 287 273 298 112 129 145 178 102 47 24 29 37 39 44 46 45 41 33 41 52 288 232 212 212 212 237 226 220 218 219 212
90 123 162 279 273 26 353 351 338 318 301 312 262 260 266 332 181 176 158 147 102 47 50 45 51 50 52 56 56 55 56 56 54 62 78 111 185 192 213 222 195 195 197 205
267 123 239 279 34 1 335 299 279 246 262 312 251 238 282 65 20 359 133 155 164 157 88 60 56 61 62 59 58 56 55 58 59 54 57 66 77 89 117 156 177 184 194 189
170 202 130 359 297 137 74 333 327 340 349 228 46 332 271 39 9 35 159 168 170 173 161 112 71 63 60 57 54 54 53 52 55 55 57 58 57 60 59 62 91 159 190 188
285 328 156 124 290 3 240 178 172 271 326 300 320 250 263 85 353 293 154 164 171 191 192 169 103 63 52 50 48 46 46 47 44 46 50 52 54 56 61 50 36 19 316 295
350 145 112 41 17 8 21 217 346 320 229 318 240 268 171 79 353 97 140 173 190 197 191 186 144 55 38 34 33 34 34 36 37 37 37 37 40 45 49 52 56 49 338 309
104 297 87 119 247 253 217 4 92 297 292 260 276 299 287 279 220 214 221 213 215 204 200 192 198 339 350 360 11 17 19 19 22 25 26 29 29 26 24 29 32 30 35 14
48 100 152 137 201 222 165 228 217 257 252 234 294 268 2 45 338 212 224 220 224 203 211 210 248 311 336 343 345 357 6 4 0 359 3 7 13 14 10 5 6 7 7 3
69 150 250 232 89 67 40 312 292 177 268 250 269 273 72 60 300 329 240 228 231 216 208 223 263 297 326 337 341 345 342 339 337 340 344 347 351 352 353 352 352 347 344 342
188 214 336 326 50 46 169 209 221 256 90 268 265 273 324 286 313 304 300 257 229 221 213 229 254 287 312 327 331 330 324 320 318 317 323 329 337 343 346 347 345 344 343 340
81 165 186 218 256 348 272 284 285 210 226 264 259 279 291 308 310 288 287 277 251 238 232 224 263 277 306 319 319 313 311 306 302 299 303 310 319 328 334 339 340 340 338 336
119 198 208 254 289 308 287 283 277 259 263 243 273 277 282 283 298 294 286 273 269 261 226 214 246 296 312 317 319 318 315 303 290 283 279 284 296 307 320 329 333 336 338 338
72 275 41 299 248 276 302 289 265 269 270 267 269 274 277 296 306 311 321 292 266 264 266 275 288 299 305 311 309 306 304 306 304 289 278 274 273 285 299 314 322 327 336 343
134 136 67 278 3 320 319 245 262 263 236 207 271 277 292 295 293 296 302 298 288 294 290 292 307 312 316 314 313 313 308 304 304 302 288 280 276 272 276 291 304 310 315 323
136 111 112 267 26 312 224 301 229 239 258 281 288 291 295 298 293 286 284 290 289 301 335 328 321 318 318 315 313 314 311 308 308 306 300 289 279 273 268 270 283 295 305 312
71 126 254 171 204 284 297 315 8 22 282 342 312 326 335 346 341 314 307 277 263 327 341 324 312 306 303 301 302 306 308 312 308 309 304 297 290 277 269 262 268 280 295 298
57 72 134 114 208 238 255 84 170 297 268 6 5 12 11 6 3 346 3 353 323 319 322 308 297 291 290 289 289 295 302 305 309 311 308 302 295 292 281 257 255 266 281 288
119 183 199 214 247 276 344 17 5 208 293 350 358 356 359 358 322 318 319 336 342 332 325 316 304 294 290 288 292 300 303 303 304 305 305 304 301 297 293 264 250 256 264 275
164 156 191 153 191 269 19 0 153 303 325 347 349 349 340 326 317 316 310 309 305 308 318 312 305 301 297 300 302 302 301 298 296 295 295 294 294 297 296 287 257 254 259 265
251 187 184 178 208 94 89 151 176 318 330 339 330 325 324 318 318 314 316 315 311 304 295 296 298 298 302 306 307 302 299 298 295 292 287 286 284 285 288 288 278 263 258 260
276 169 185 60 298 58 78 94 355 343 329 317 321 310 312 312 312 308 306 305 305 307 308 294 296 299 302 303 303 302 301 298 295 292 289 285 281 280 279 278 277 273 265 260
169 141 196 256 276 342 161 23 325 322 313 309 306 314 312 306 306 305 304 300 299 298 294 297 298 299 299 300 299 299 299 299 296 292 288 285 283 280 278 274 271 270 267 266
185 190 181 221 145 199 270 295 315 306 309 313 314 309 313 314 308 305 299 298 299 298 298 297 298 299 299 299 297 296 295 294 293 290 288 285 280 277 275 274 270 263 263 263